This is the latest recevied weather packets stored in our database for station/object OM6ACB-6. If no packets are shown the sender has not sent any weather packets the latest 10 day(s).
| Time | Temp. | Humidity | Pressure | Rain* | Wind** | Luminosity | Snow |
|---|---|---|---|---|---|---|---|
| 1777785797 | 10° C | 28% | 1023.8 hPa | 0 mm | - | - | - |
| 1777785196 | 10° C | 28% | 1023.8 hPa | 0 mm | - | - | - |
| 1777784596 | 8.89° C | 28% | 1023.4 hPa | 0 mm | - | - | - |
| 1777783996 | 7.78° C | 29% | 1023.4 hPa | 0 mm | - | - | - |
| 1777783395 | 8.33° C | 28% | 1023.4 hPa | 0 mm | - | - | - |
| 1777782795 | 5.56° C | 30% | 1022.9 hPa | 0 mm | - | - | - |
| 1777782195 | 5.56° C | 30% | 1022.8 hPa | 0 mm | - | - | - |
| 1777781595 | 5.56° C | 30% | 1022.7 hPa | 0 mm | - | - | - |
| 1777780994 | 2.78° C | 31% | 1022.3 hPa | 0 mm | - | - | - |
| 1777780394 | 2.22° C | 39% | 1022.1 hPa | 0 mm | - | - | - |
| 1777779794 | 1.67° C | 47% | 1021.9 hPa | 0 mm | - | - | - |
| 1777779193 | 1.67° C | 47% | 1021.8 hPa | 0 mm | - | - | - |
| 1777778593 | 1.67° C | 47% | 1021.8 hPa | 0 mm | - | - | - |
| 1777777993 | 1.67° C | 47% | 1021.7 hPa | 0 mm | - | - | - |
| 1777777393 | 1.67° C | 47% | 1021.7 hPa | 0 mm | - | - | - |
| 1777776792 | 1.67° C | 47% | 1021.7 hPa | 0 mm | - | - | - |
| 1777776192 | 2.22° C | 47% | 1021.8 hPa | 0 mm | - | - | - |
| 1777775592 | 2.22° C | 47% | 1021.8 hPa | 0 mm | - | - | - |
| 1777774991 | 2.22° C | 39% | 1021.9 hPa | 0 mm | - | - | - |
| 1777774391 | 2.22° C | 39% | 1021.9 hPa | 0 mm | - | - | - |
| 1777773791 | 2.22° C | 39% | 1021.9 hPa | 0 mm | - | - | - |
| 1777773190 | 2.22° C | 39% | 1021.9 hPa | 0 mm | - | - | - |
| 1777772590 | 2.22° C | 39% | 1021.8 hPa | 0 mm | - | - | - |
| 1777771990 | 2.22° C | 39% | 1021.8 hPa | 0 mm | - | - | - |
| 1777771390 | 2.22° C | 39% | 1021.7 hPa | 0 mm | - | - | - |
* Rain latest hour (hover to see other rain measurements)
** Current wind speed in m/s (hover to see current wind gust speed)